METOP-C

Last updated on Wed Aug 19 2026 00:02:41 GMT+0000 (Coordinated Universal Time)

1 43689U 18087A 26230.57211275 .00000046 00000+0 40643-4 0 9997 2 43689 98.6595 289.0194 0001298 53.2740 306.8556 14.21509937403694
UTC large
Height (km)
Speed (km/s)
/
Latitude / Longitude
Inclination (degrees)
Orbital Period (minutes)
Azimuth
Elevation
Range (km)
Doppler Factor

Next 0 passes for location: London (51.5072 / 0.1276)

No passes found over London.
METOP-C